Location: Rye
(50.9500°N, 0.7333°E)
Time: 23:41:43
(UTC+00:00)

Daily predictions for brighter satellites

Satellite Brightness Start Highest point End
(mag) Time Altitude Azimuth Time Altitude Azimuth Time Altitude Azimuth
Cosmos 2061 Rocket 4.3 16:27:09 10° SSW 16:33:35 80° W 16:40:02 10° N
ARGOS 4.4 16:31:41 10° E 16:35:26 19° NE 16:39:11 10° N
Okean O Rocket 3.2 16:35:25 10° E 16:38:06 16° NE 16:40:47 10° NNE
Cosmos 192 4.4 16:35:40 10° SSW 16:40:37 86° ESE 16:45:35 10° NNE
Meteor PRIRODA 3.5 16:39:12 10° SSE 16:42:51 75° ENE 16:46:31 10° N
CZ-4C R/B 3.5 16:41:54 10° NNE 16:46:04 78° WNW 16:49:57 10° SSW
NOSS 2-1 (E) 4.4 16:47:29 10° S 16:50:01 21° ESE 16:52:18 11° ENE
Cosmos 2221 3.7 16:46:52 10° SE 16:50:14 23° E 16:53:37 10° NE
ISS -3.2 16:48:27 10° SW 16:51:46 51° SSE 16:54:50 12° E
CZ-2C R/B 4.0 16:49:12 10° NE 16:52:37 17° E 16:55:59 10° SE
Cosmos 1992 Rocket 4.2 16:47:53 10° SSW 16:53:06 77° WNW 16:58:22 10° NNE
USA 267 3.3 16:47:59 10° ENE 16:54:33 82° NNW 17:01:06 10° WSW
Cosmos 1340 Rocket 4.1 16:51:25 10° NNE 16:54:33 21° ENE 16:57:41 10° ESE
Spot 1 4.2 16:50:23 10° NNE 16:54:50 75° ESE 16:59:32 10° S
USA 81 4.2 16:49:47 10° S 16:55:03 84° W 17:00:22 10° N
Nadezhda 4 Rocket 4.3 16:53:02 10° N 16:59:01 43° ENE 17:05:00 10° SE
YAOGAN 1 4.3 16:58:27 12° ENE 16:59:18 13° NE 17:01:14 10° NNE
USA 229 DEB 4.3 16:52:44 10° NW 16:59:28 43° NNE 17:06:39 10° E
USA 229 4.3 16:52:50 10° NW 16:59:33 43° NNE 17:06:44 10° E
AQUARIUS 4.2 16:55:15 10° SSE 16:59:38 57° ENE 17:04:03 10° N
RESURS DK-1 3.4 16:56:03 10° SW 17:00:00 43° NW 17:03:59 10° NNE
Lacrosse 5 rocket 1.7 16:56:59 10° W 17:00:37 48° NNW 17:03:54 13° NE
USA 306 3.9 16:56:56 10° SSW 17:00:47 34° SE 17:04:01 13° E
Cosmos 2333 Rocket 4.4 17:00:14 10° NNW 17:01:16 10° N 17:02:16 10° N
Cosmos 1271 Rocket 3.0 16:57:43 10° S 17:01:28 47° E 17:05:17 10° NNE
NOSS 3-4 (A) 4.4 16:59:28 10° W 17:05:02 38° NNW 17:11:07 10° NE
NOSS 3-4 (C) 4.4 16:59:34 10° W 17:05:07 38° NNW 17:11:13 10° NE
SMAP 3.0 17:02:02 10° SSE 17:06:40 77° ENE 17:11:21 10° NNW
Cosmos 1408 Rocket 3.9 17:02:57 10° N 17:07:06 42° ENE 17:11:13 10° SE
ATLAS 2AS CENTAUR R/B 3.3 17:00:14 10° WSW 17:08:01 63° NW 17:15:29 10° NE
Cosmos 1743 Rocket 4.4 17:05:12 10° N 17:08:54 26° ENE 17:12:34 10° SE
SL-16 R/B 4.2 17:07:21 10° N 17:09:06 11° NNE 17:10:52 10° NE
CZ-4B DEB 4.2 17:04:34 10° SSE 17:10:03 68° ENE 17:15:32 10° NNW
Cosmos 1697 Rocket 3.6 17:05:25 10° NNW 17:10:11 27° NE 17:14:22 12° E
Cosmos 1980 Rocket 3.6 17:06:12 10° NNW 17:10:15 19° NNE 17:12:43 15° ENE
Cosmos 2233 Rocket 4.4 17:05:12 10° SSW 17:11:18 66° WNW 17:17:30 10° N
H-2A R/B 2.2 17:09:24 10° SE 17:14:28 50° ENE 17:19:26 10° N
Cosmos 2237 Rocket 4.4 17:11:42 10° NW 17:14:39 14° NNW 17:17:36 10° N
USA 307 3.7 17:11:51 10° SSW 17:15:50 39° SE 17:18:33 18° E
Cosmos 1513 Rocket 4.5 17:10:37 10° S 17:16:36 63° E 17:22:41 10° NNE
Cosmos 44 3.6 17:11:50 10° NW 17:16:36 45° NE 17:20:56 11° ESE
PAYLOAD B 4.3 17:11:45 10° SSE 17:17:17 62° ENE 17:22:50 10° N
Cosmos 1777 Rocket 4.2 17:12:58 10° NNW 17:18:16 79° WSW 17:23:32 10° SSE
ATLAS CENTAUR R/B 1.5 17:16:44 10° SSW 17:20:47 62° SE 17:23:56 18° NE
Lacrosse 5 2.6 17:16:49 10° WNW 17:21:50 55° SW 17:26:47 10° SE
Cosmos 2034 Rocket 4.2 17:16:18 10° SSE 17:22:07 45° E 17:27:56 10° NNE
NOSS 3-1 (A) 4.1 17:16:06 10° NW 17:22:58 54° NE 17:31:10 10° ESE
Cosmos 1939 Rocket 3.3 17:20:01 10° S 17:24:08 69° WSW 17:28:16 10° NNW
Cosmos 1898 Rocket 4.2 17:22:22 10° NNW 17:27:10 33° NE 17:31:16 13° ESE
SL-16 R/B 4.2 17:23:16 10° W 17:27:31 21° NW 17:31:46 10° NNE
NOSS 3-1 (C) 4.0 17:20:56 10° NW 17:28:05 73° NE 17:36:37 10° SE
Okean 3 Rocket 4.0 17:23:38 10° NNW 17:28:10 69° W 17:32:37 10° S
Cosmos 1656 3.7 17:24:23 10° NNW 17:29:49 55° NE 17:35:16 10° SE
MOS 1-B Rocket 4.3 17:24:52 10° NNE 17:30:15 42° E 17:36:00 10° S
NOSS 2-1 (C) 2.9 17:27:31 10° SSW 17:30:43 58° SE 17:32:11 28° ENE
Cosmos 1072 Rocket 4.5 17:25:03 10° S 17:31:25 78° E 17:37:45 10° NNE
Cosmos 2084 4.2 17:28:27 10° NW 17:32:17 33° NNE 17:33:54 25° ENE
Cosmos 1862 4.1 17:29:30 10° NNW 17:33:23 54° W 17:37:15 10° S
Meteor 1-20 Rocket 4.4 17:29:06 10° N 17:34:43 49° ENE 17:40:21 10° SE
CZ-2D R/B 3.1 17:31:49 10° SSE 17:35:40 79° ENE 17:39:32 10° N
GEOS 3 Rocket 3.6 17:30:42 10° SE 17:35:57 89° NE 17:41:12 10° NW
Cosmos 1461 2.9 17:32:59 10° SW 17:37:13 81° NW 17:39:49 22° NE
PSLV R/B 3.7 17:33:54 10° SSE 17:37:35 82° WSW 17:41:18 10° NNW
USA 308 3.2 17:33:42 10° SW 17:37:50 51° SSE 17:39:45 28° E
MOS 1-B 4.3 17:32:05 10° SSE 17:37:50 82° ENE 17:43:39 10° NNW
NOSS 2-1 (D) 2.7 17:36:43 10° SW 17:39:57 73° SE 17:41:11 35° NE
Cosmos 1500 Rocket 3.6 17:36:15 10° N 17:40:40 54° ENE 17:45:02 10° SSE
SL-08 RB Rocket 4.3 17:36:31 10° SE 17:40:46 36° ENE 17:45:00 10° N
SJ 16-02 1.9 17:38:46 10° NNW 17:43:05 60° WSW 17:47:24 10° S
Cosmos 1634 Rocket 4.5 17:44:56 10° SSE 17:50:37 37° E 17:56:22 10° NNE
Cosmos 1805 Rocket 3.8 17:46:49 10° N 17:50:58 41° ENE 17:55:05 10° SE
CZ-4C R/B 3.4 17:46:53 10° NW 17:52:55 37° NNE 17:56:08 26° ENE
Cosmos 1842 Rocket 3.5 17:48:47 10° S 17:53:13 82° E 17:57:43 10° NNE
CZ-4B R/B 3.1 17:49:34 10° SSE 17:55:04 84° ENE 18:00:30 10° NNW
H-2A R/B 4.1 17:58:19 18° NNE 17:58:19 18° NNE 17:59:32 10° N
ATLAS 5 CENTAUR R/B 3.0 17:47:06 10° WNW 17:57:28 45° NNE 17:58:53 34° ENE
CZ-4 R/B 2.6 18:00:41 26° NNE 18:00:41 26° NNE 18:02:56 10° N
Cosmos 1833 Rocket 3.7 17:54:40 10° SSE 17:58:47 26° ESE 17:58:47 26° ESE
YAOGAN 3 4.4 17:56:49 10° SSE 18:01:10 74° ENE 18:05:32 10° N
Meteor 1-25 Rocket 4.0 18:01:03 10° N 18:06:37 76° ENE 18:12:12 10° SSE
Cosmos 2026 Rocket 3.9 18:01:13 10° N 18:07:24 64° ENE 18:13:28 10° SSE
Cosmos 1606 3.6 18:03:52 10° SSW 18:07:30 49° WNW 18:11:10 10° N
USA 305 2.8 18:04:29 10° WSW 18:08:42 80° SSE 18:09:32 56° E
Cosmos 2195 Rocket 4.3 18:02:34 10° N 18:08:43 75° E 18:14:52 10° SSE
Sich 1 3.3 18:05:53 10° N 18:09:17 44° NE 18:09:17 44° NE
USA 276 2.3 18:07:31 10° W 18:10:26 67° SW 18:10:26 67° SW
COSMO-SKYMED 1 2.4 18:11:30 31° NNE 18:13:32 76° ESE 18:17:52 10° S
Okean O Rocket 1.6 18:09:25 10° SSE 18:13:51 83° WSW 18:18:21 10° NNW
ARGOS 3.1 18:09:36 10° SSE 18:15:02 88° WSW 18:20:30 10° NNW
Spot 2 4.4 18:12:17 10° SSE 18:17:17 62° ENE 18:22:24 10° N
ATLAS CENTAUR R/B 3.1 18:10:09 10° SSW 18:18:31 41° SE 18:19:16 39° ESE
Cosmos 1937 Rocket 3.5 18:14:44 10° NNW 18:20:00 58° ENE 18:21:06 48° ESE
ERBS 3.5 18:17:46 10° SW 18:19:49 34° SSW 18:19:49 34° SSW
Cosmos 2221 3.7 18:23:31 10° SW 18:27:33 41° WNW 18:31:38 10° N
Cosmos 2360 Rocket 4.2 18:25:11 10° N 18:27:21 14° NNE 18:27:21 14° NNE
ISS -2.9 18:25:09 10° W 18:27:49 51° W 18:27:49 51° W
Meteor 1-5 Rocket 4.5 18:22:56 10° N 18:28:37 48° ENE 18:28:37 48° ENE
Cosmos 1763 Rocket 3.4 18:24:00 10° S 18:28:45 57° ESE 18:28:45 57° ESE
Cosmos 1340 Rocket 4.0 18:27:20 10° NNW 18:31:12 43° W 18:35:03 10° SSW
CZ-2C R/B 2.6 18:28:53 13° NNE 18:33:37 80° WNW 18:38:48 10° SSW
NOSS 2-2 (C) 4.2 18:29:38 10° NW 18:34:17 54° NE 18:34:24 54° NE
Cosmos 1933 3.8 18:30:20 10° S 18:33:24 50° S 18:33:24 50° S
YAOGAN 1 2.9 18:35:37 55° N 18:35:37 55° N 18:39:02 10° NNW
Meteor 2-21 4.3 18:30:13 10° N 18:36:23 89° ENE 18:42:28 10° S
USA 267 3.6 18:35:05 38° NE 18:37:17 54° N 18:43:37 10° W
Cosmos 2369 3.6 18:32:05 10° NNW 18:37:48 63° NE 18:38:07 62° ENE
Landsat 5 3.5 18:38:53 82° W 18:38:53 82° W 18:42:59 10° SSW
Feng Yun 1-1 Rocket 4.4 18:34:13 10° SSE 18:40:09 81° WSW 18:46:06 10° NNW
NOSS 2-1 (E) 4.3 18:37:07 10° WSW 18:39:36 35° WNW 18:39:36 35° WNW
Lacrosse 5 rocket 2.6 18:36:46 10° WNW 18:39:29 30° NNW 18:39:29 30° NNW
Cosmos 990 Rocket 4.4 18:35:16 10° NNW 18:40:25 60° WSW 18:45:30 10° S
USA 306 3.1 18:36:10 10° WSW 18:40:01 70° WNW 18:40:01 70° WNW
Cosmos 2322 Rocket 3.9 18:38:50 10° NNW 18:41:19 18° NNE 18:41:19 18° NNE
Cosmos 858 Rocket 4.3 18:42:32 10° NNW 18:47:52 84° ENE 18:48:00 83° ESE
Cosmos 2333 Rocket 4.3 18:45:36 10° N 18:47:22 13° N 18:47:22 13° N
USA 229 DEB 3.9 18:43:46 10° NW 18:51:02 78° SW 18:54:57 32° SSE
USA 229 3.9 18:43:52 10° NW 18:51:08 79° SW 18:54:58 33° SSE
H-2A R/B 4.0 18:49:38 10° SSW 18:54:08 28° W 18:58:33 10° NW
Cosmos 1697 Rocket 2.7 18:49:06 10° NNW 18:54:44 75° WSW 18:56:10 50° S
SL-16 R/B 3.8 18:50:30 10° NNW 18:53:08 22° N 18:53:08 22° N
Cosmos 1980 Rocket 2.4 18:49:41 10° NNW 18:54:31 58° N 18:54:31 58° N
USA 307 3.7 18:51:18 10° WSW 18:54:34 50° W 18:54:34 50° W
COSMOS 2406 4.2 18:53:57 10° S 18:57:17 35° S 18:57:17 35° S
ATLAS CENTAUR R/B 3.0 18:56:14 10° W 19:00:00 29° NNW 19:00:03 29° NNW
ATLAS 2AS CENTAUR R/B 4.0 18:53:28 10° WNW 19:00:23 34° NNW 19:02:55 27° NNE
Meteor 1-26 Rocket 4.3 18:55:06 10° SSW 19:01:01 87° WNW 19:02:35 52° N
Cosmos 2142 Rocket 4.4 18:58:51 10° S 19:04:23 73° SSE 19:04:23 73° SSE
Cosmos 2278 4.4 18:59:24 10° NNW 19:03:22 42° N 19:03:22 42° N
Cosmos 1898 Rocket 4.4 19:04:22 10° NW 19:09:26 47° WSW 19:11:39 29° SSW
Meteor 1-14 Rocket 4.2 19:03:46 10° NNW 19:09:24 81° WNW 19:09:24 81° WNW
NOSS 3-1 (A) 4.5 19:06:59 10° NW 19:14:16 60° SW 19:19:13 26° SSE
Cosmos 2279 Rocket 4.4 19:23:17 10° SSW 19:28:12 56° SW 19:28:12 56° SW
CZ-4 R/B 4.1 19:36:41 16° NW 19:36:41 16° NW 19:37:45 10° NW
CZ-4C R/B 3.0 19:35:22 10° NW 19:41:21 69° NNW 19:41:21 69° NNW
Cosmos 1833 Rocket 3.9 19:37:14 10° SW 19:40:32 36° WSW 19:40:32 36° WSW
USA 267 4.4 20:22:26 37° NW 20:22:26 37° NW 20:26:16 10° WNW
